Location: Starry Hill Observatory
(46.8582°N, 122.3590°W)
Time: 17:27:28

ISS - Visible Passes

Search period start: 25 October 2016 00:00
Search period end: 04 November 2016 00:00
Orbit: 399 x 408 km, 51.6° (Epoch: 26 October)

Date Brightness Start Highest point End Pass type
(mag) Time Alt. Az. Time Alt. Az. Time Alt. Az.
01 Nov -1.2 07:15:12 10° SSW 07:18:04 29° SE 07:20:57 10° E visible
02 Nov -0.5 06:23:32 10° S 06:25:46 17° SE 06:28:00 10° E visible
03 Nov -2.7 07:06:09 10° SW 07:09:23 58° SSE 07:12:36 10° ENE visible
